Theta_e
279 278 278 278 277 277 277 277 277 277 277 277 277 277 277 276 276 275 275 276 275 275 276 276 277 277 278 278 279 279 279 279 278 280 283 285 284 284 286 285 285 286 287
278 278 278 277 277 277 276 277 277 277 277 277 277 277 276 276 276 275 275 275 274 275 275 276 276 278 276 277 277 277 278 279 278 277 280 281 282 284 283 283 285 285 285
278 277 277 277 277 276 277 277 277 276 276 276 275 274 274 274 274 274 275 275 275 275 276 276 276 276 276 276 276 276 277 279 278 278 278 281 282 283 282 282 282 284 284
278 277 277 277 276 276 276 276 275 275 274 273 273 273 273 273 273 274 275 274 274 274 275 275 275 275 275 275 276 276 277 277 278 278 278 278 280 281 280 281 281 281 283
277 277 277 277 276 275 274 274 273 273 273 272 272 271 272 272 273 274 274 273 273 273 273 274 274 274 276 276 275 275 276 275 276 276 276 277 278 279 279 281 280 282 282
277 276 276 275 275 273 273 272 272 271 271 270 270 269 269 271 274 275 275 273 272 271 271 271 272 272 273 275 276 277 276 274 273 274 275 276 277 279 281 280 280 280 279
275 273 272 272 272 271 270 270 270 269 269 268 268 268 267 268 273 274 274 272 271 270 270 270 270 271 271 271 272 274 274 275 276 274 272 273 274 276 278 279 281 280 280
273 270 270 270 269 269 268 267 267 267 266 266 266 266 266 267 272 273 273 271 269 269 269 269 269 269 270 270 270 271 271 272 273 274 273 273 273 274 275 276 277 280 282
272 271 270 268 266 266 263 264 265 264 264 263 265 264 263 264 269 271 271 269 269 268 269 269 269 269 271 274 272 271 271 272 275 277 277 278 279 279 279 277 275 275 275
271 271 269 267 263 262 264 263 263 261 264 264 264 263 263 262 267 270 271 269 267 268 268 269 272 272 274 275 273 271 269 270 271 271 272 274 275 275 277 275 274 272 274
269 267 266 265 262 262 261 261 259 258 262 259 260 261 261 262 262 269 271 270 269 268 269 270 271 274 275 276 276 273 272 274 274 273 272 272 273 273 273 274 275 274 273
266 265 264 261 262 261 255 256 255 255 255 256 257 259 261 263 266 269 272 273 274 270 269 270 271 275 276 278 278 278 279 278 274 272 271 270 270 271 272 273 274 275 277
262 262 260 261 261 261 256 258 256 253 254 257 259 259 260 263 264 270 272 273 274 272 272 273 276 276 277 276 275 276 274 273 272 271 270 270 271 272 272 272 272 273 273
257 260 261 260 260 260 261 260 255 254 256 258 258 258 260 263 267 267 268 270 273 272 273 272 273 272 272 271 268 269 269 269 269 269 269 271 272 272 271 271 269 269 269
258 261 260 260 259 259 259 258 259 260 260 258 259 262 265 264 266 272 273 271 271 273 271 266 263 262 262 263 264 265 265 266 266 268 268 268 269 269 269 270 269 269 267
259 260 260 260 260 259 258 258 263 267 269 270 272 271 268 271 272 273 273 274 274 271 264 258 258 259 260 261 261 262 263 264 265 267 267 268 267 268 268 269 269 268 267
256 260 259 259 258 257 256 256 255 259 265 267 268 269 269 270 271 272 272 272 268 265 254 256 257 258 259 260 260 261 261 263 266 267 268 268 269 269 268 269 270 270 269
257 259 257 257 256 254 254 254 254 254 253 255 261 264 267 268 269 270 269 264 256 257 250 255 256 258 258 259 260 260 261 262 264 266 268 268 268 269 269 269 271 274 271
256 256 256 255 254 254 254 254 254 254 254 254 255 259 260 264 266 266 265 250 254 256 257 257 258 258 259 259 260 261 261 262 264 265 266 269 269 269 270 271 274 275 276
254 256 256 252 251 251 253 253 253 253 252 252 253 255 256 256 251 251 250 250 252 256 257 257 258 259 259 260 260 261 262 263 263 264 265 266 268 271 272 273 274 275 276
252 251 253 249 249 249 249 250 252 251 252 251 254 257 264 258 253 253 253 252 252 254 256 257 258 259 259 260 261 261 262 263 264 264 264 265 266 267 269 271 274 275 274
250 249 246 248 249 249 249 251 251 251 251 253 255 256 261 254 254 253 253 252 253 254 255 256 257 258 259 260 261 261 262 264 264 264 264 265 266 266 267 268 270 270 270
252 252 251 249 248 249 248 248 249 249 251 253 253 253 252 250 250 250 251 252 252 253 254 255 255 257 258 260 261 262 262 264 266 265 264 264 265 266 266 267 267 268 267
250 251 252 250 247 248 249 249 250 252 253 253 250 249 250 251 248 248 250 251 252 252 253 254 255 255 256 257 259 261 262 265 267 265 264 264 264 265 265 265 266 267 268
245 248 249 249 248 250 250 251 253 253 252 251 250 248 249 248 248 248 249 249 251 251 252 253 254 254 255 255 256 258 261 265 265 265 264 264 264 264 264 264 265 266 266
252 252 253 252 251 251 251 253 253 253 252 251 249 248 248 248 248 249 249 249 250 251 251 252 253 252 253 255 256 260 262 268 267 265 263 263 263 263 264 264 264 264 264
Wind_Speed
6 6 6 5 6 6 5 4 3 2 3 3 4 4 5 5 5 5 5 6 7 8 6 5 8 6 6 6 5 5 6 5 10 10 10 10 7 8 9 7 7 8 8
6 6 6 6 5 4 4 3 3 4 3 4 4 4 4 5 5 5 7 6 6 9 9 9 10 7 8 7 7 10 9 8 9 15 11 12 12 10 8 9 9 7 8
6 6 5 5 4 3 2 1 2 2 3 3 3 3 5 6 7 7 6 7 8 9 10 10 12 11 11 9 9 10 9 9 10 11 12 9 11 9 10 8 8 10 7
6 6 6 5 4 3 2 2 1 1 2 3 3 4 5 7 8 6 9 11 11 11 11 12 12 12 13 12 11 12 11 10 10 11 11 10 10 10 5 9 11 5 8
7 6 6 5 4 4 3 2 2 3 4 4 6 5 6 7 7 11 11 12 12 13 12 12 11 14 24 22 14 14 14 12 10 11 13 12 11 9 9 7 10 9 8
7 7 6 4 4 3 2 3 3 4 4 5 6 6 7 8 17 18 16 12 13 13 14 13 12 14 16 22 24 28 25 17 15 11 12 13 15 13 10 10 11 10 13
6 6 5 5 3 2 2 4 4 4 4 5 5 7 8 8 17 21 22 12 13 13 14 14 14 11 13 13 19 24 22 24 26 18 18 17 17 14 13 14 12 12 14
6 6 5 4 3 2 3 3 3 2 4 6 7 7 8 8 20 21 22 13 12 13 13 14 14 15 14 16 16 16 15 14 15 13 16 16 17 15 15 16 18 17 14
8 6 5 4 3 2 2 0 1 3 4 5 6 6 8 10 20 21 19 12 12 13 13 13 14 15 21 26 18 16 14 14 17 27 30 32 33 32 28 13 12 14 17
6 5 5 3 3 2 1 2 1 2 7 7 7 7 9 11 18 20 18 9 11 10 12 14 19 21 26 27 18 15 16 15 15 15 16 21 24 20 28 18 13 15 15
5 5 4 3 3 1 2 1 1 3 6 5 9 8 9 10 12 20 21 12 10 11 10 10 11 25 29 29 29 17 19 20 21 18 16 13 13 13 11 12 15 15 16
5 5 3 2 1 1 1 2 3 3 5 6 7 8 6 9 14 17 21 22 22 13 13 11 13 28 31 32 27 29 33 29 13 12 12 12 12 12 12 13 16 16 16
5 4 2 0 1 1 2 3 2 2 3 5 6 8 8 7 8 18 22 24 25 17 12 20 32 32 31 22 23 31 28 13 13 12 13 13 13 13 15 15 16 18 21
4 4 2 2 2 2 2 3 2 3 4 5 6 8 8 8 7 9 10 10 15 15 20 13 16 21 25 21 14 14 10 11 12 12 14 13 13 12 10 11 13 12 15
3 3 3 2 3 3 4 4 5 5 7 7 8 8 8 8 8 19 18 13 12 15 17 10 10 10 9 10 10 10 10 11 11 11 12 13 12 12 13 12 12 12 14
4 3 3 3 3 3 3 5 11 15 18 19 20 14 5 16 21 22 24 25 25 26 10 7 9 9 10 11 11 12 11 13 12 12 13 11 12 12 13 13 13 13 14
4 3 3 4 3 4 3 4 7 5 14 13 12 13 16 17 18 20 21 22 20 15 4 7 8 9 10 11 11 11 13 12 15 14 11 11 11 12 14 13 14 13 13
5 6 3 4 4 3 4 5 4 5 6 6 8 13 13 15 18 17 19 15 8 6 3 6 9 9 10 10 11 11 12 12 12 13 13 11 11 12 13 13 14 12 13
5 5 4 4 3 4 3 4 4 4 5 6 7 7 7 15 14 15 13 1 5 8 8 8 8 9 10 10 11 11 12 12 13 12 12 11 11 11 12 13 12 16 12
4 7 5 4 3 3 4 4 4 4 4 5 5 7 6 4 2 2 3 3 3 6 7 9 9 9 10 10 11 11 12 12 12 11 11 11 11 11 11 11 10 10 10
3 3 5 2 4 4 4 4 4 4 5 4 6 6 15 3 3 5 5 3 4 6 8 9 10 10 10 10 11 11 12 11 11 12 11 11 11 11 11 10 10 9 6
3 3 3 4 3 4 4 4 4 4 4 5 6 5 13 4 5 6 6 5 6 6 7 8 9 9 10 10 12 12 13 13 11 11 12 12 11 11 10 9 8 4 2
4 4 4 3 4 4 4 4 4 4 5 5 5 5 4 4 4 6 6 6 6 7 7 7 8 9 9 10 11 11 13 14 11 10 11 11 11 10 9 8 7 4 3
3 4 4 4 3 4 4 4 4 6 6 5 4 4 5 5 4 6 6 6 7 7 8 8 8 11 11 11 10 11 12 14 8 10 13 9 9 10 8 6 5 5 4
2 3 4 4 4 4 4 4 5 5 5 5 5 3 4 4 6 5 5 5 6 7 9 9 8 10 13 17 16 17 18 24 7 11 9 9 9 10 8 6 5 4 6
4 5 5 3 4 4 5 5 6 5 5 4 4 4 5 5 6 6 6 6 6 7 10 8 10 13 15 13 14 19 20 22 10 12 9 8 8 7 6 7 9 6 6
Wind_Direction
125 113 103 91 86 85 84 82 67 52 20 9 359 350 348 342 338 332 324 318 327 319 313 293 296 286 295 295 294 279 275 253 269 284 287 294 283 267 273 269 258 254 254
152 140 138 134 128 108 91 66 39 24 6 354 346 331 325 325 318 314 320 313 300 307 307 302 300 302 295 287 281 283 279 272 273 279 279 289 282 285 259 261 268 252 245
168 159 163 162 141 127 120 68 19 351 344 346 347 335 336 333 329 319 304 308 306 300 301 299 302 305 298 293 286 284 281 278 277 278 281 278 285 287 281 269 257 257 247
180 179 177 177 176 165 135 115 73 353 12 6 4 348 342 335 324 326 329 320 310 304 302 298 296 292 291 292 287 283 282 282 281 279 282 280 273 278 259 278 276 242 254
181 181 191 179 173 151 133 123 57 43 22 1 349 348 342 334 335 332 322 314 310 307 306 304 299 298 299 296 294 290 286 282 278 277 280 280 274 268 264 273 268 281 257
187 190 174 168 164 144 109 46 38 20 6 354 348 338 332 329 326 323 323 314 309 305 304 304 300 293 293 298 298 297 292 292 287 287 284 277 278 280 273 271 272 275 281
177 164 162 158 154 101 64 41 18 356 345 341 335 330 321 318 321 322 319 310 304 301 300 300 299 297 298 292 290 289 290 286 282 283 281 276 285 287 300 297 269 261 263
171 165 165 160 145 121 62 43 344 338 339 328 323 314 305 310 318 319 315 310 301 294 292 293 293 293 288 287 285 279 275 270 268 266 266 274 271 273 267 271 281 291 282
180 175 170 161 144 76 60 55 325 335 328 307 303 306 301 302 313 313 315 304 297 293 291 285 282 285 286 287 282 279 277 275 271 274 276 279 281 284 282 284 270 263 270
167 159 150 148 132 97 58 11 64 331 304 307 302 302 294 291 302 306 310 295 293 292 284 283 281 286 289 291 287 283 279 273 270 265 262 264 268 267 269 268 274 272 275
134 133 142 124 95 55 37 22 329 294 300 301 295 289 280 278 283 302 305 300 294 286 284 288 284 288 292 290 286 278 271 272 266 267 265 262 257 258 257 253 254 258 263
141 144 138 101 15 42 62 292 302 295 294 291 293 295 277 274 279 296 303 303 301 301 293 288 285 285 285 286 289 290 293 296 290 282 276 268 263 258 259 255 255 261 265
141 154 170 209 278 264 255 282 288 242 263 285 288 294 294 286 277 285 303 300 300 301 292 289 298 301 303 310 306 300 303 294 286 274 267 267 266 268 267 266 263 265 265
157 189 203 235 291 257 272 262 217 240 262 270 274 274 281 279 299 300 287 285 296 303 292 291 316 323 312 303 308 301 294 294 291 284 281 281 281 273 265 261 264 264 263
163 204 225 229 238 272 259 240 252 246 240 249 247 249 289 303 298 305 317 313 308 314 332 330 329 320 314 310 306 304 303 299 293 289 284 278 273 270 267 263 261 262 261
185 201 214 221 227 253 264 283 279 283 285 287 291 292 288 306 308 318 316 325 335 337 335 331 316 314 312 312 310 308 304 302 293 286 280 269 267 266 267 265 256 249 254
192 204 205 228 231 243 254 261 289 298 300 299 297 305 308 306 320 317 332 331 347 348 323 312 306 309 308 308 306 304 303 302 301 294 277 272 269 266 268 268 266 252 245
198 227 213 226 228 223 236 251 258 279 297 300 298 302 305 322 320 331 336 350 333 335 260 293 303 304 305 303 304 304 304 305 305 305 296 274 269 269 273 272 273 272 228
203 210 206 225 230 231 239 247 249 259 268 276 302 302 297 316 320 340 343 215 305 312 315 310 303 303 302 301 302 301 301 302 305 305 308 306 281 272 271 273 280 299 246
215 234 214 195 214 226 235 239 252 252 257 263 279 289 305 290 339 322 283 284 285 296 304 304 307 307 305 305 304 305 305 310 312 310 310 311 310 309 302 290 276 281 293
214 214 223 206 213 217 222 232 243 242 255 256 264 277 295 345 316 301 297 293 282 306 308 309 310 310 308 307 307 310 307 306 312 311 311 311 311 311 308 302 302 290 268
204 220 204 223 222 230 232 234 237 241 248 260 277 281 307 312 303 296 300 295 301 293 293 296 301 303 306 310 314 313 311 314 311 314 314 311 311 311 311 309 308 304 298
208 227 233 233 228 235 243 235 234 237 248 252 265 282 283 261 275 284 291 296 296 299 298 293 295 299 303 309 310 309 311 312 313 314 311 313 314 316 316 317 325 328 355
210 220 235 239 226 234 236 241 237 239 249 259 261 266 271 276 270 272 279 290 295 295 294 292 293 293 301 309 310 307 311 306 324 316 316 313 317 322 321 322 336 351 15
201 223 229 233 232 241 246 244 249 247 250 260 267 261 261 274 279 274 277 274 283 293 296 298 293 298 304 307 303 306 312 314 334 338 329 326 331 335 340 341 345 9 35
222 224 235 233 239 237 241 250 253 253 261 262 257 260 270 280 276 283 284 282 286 294 296 291 294 296 304 306 304 311 316 318 5 354 342 340 347 352 354 359 7 20 31